This is the latest recevied weather packets stored in our database for station/object IT9CYW-10. If no packets are shown the sender has not sent any weather packets the latest 1 day(s).
| Time | Temp. | Humidity | Pressure | Rain* | Wind** | Luminosity | Snow |
|---|---|---|---|---|---|---|---|
| 1778019200 | 15.56° C | 89% | 995.5 hPa | - | 0 m/s | 0 W/m² | - |
| 1778018300 | 15.56° C | 89% | 995.7 hPa | - | 0 m/s | 0 W/m² | - |
| 1778017400 | 16.11° C | 89% | 995.7 hPa | - | 0 m/s | 0 W/m² | - |
| 1778016499 | 16.11° C | 88% | 995.9 hPa | - | 0 m/s | 0 W/m² | - |
| 1778015599 | 16.67° C | 87% | 995.5 hPa | - | 0 m/s | 0 W/m² | - |
| 1778014699 | 16.67° C | 87% | 995.5 hPa | - | 0 m/s | 0 W/m² | - |
| 1778013799 | 16.67° C | 86% | 995.5 hPa | - | 0 m/s | 0 W/m² | - |
| 1778012899 | 17.22° C | 86% | 995.5 hPa | - | 0 m/s | 0 W/m² | - |
| 1778011999 | 17.22° C | 87% | 995.9 hPa | - | 0 m/s | 0 W/m² | - |
| 1778011099 | 17.22° C | 87% | 995.7 hPa | - | 0 m/s | 0 W/m² | - |
| 1778010199 | 17.22° C | 87% | 995.7 hPa | - | 0 m/s | 0 W/m² | - |
| 1778009298 | 17.78° C | 87% | 996 hPa | - | 0 m/s | 0 W/m² | - |
| 1778008398 | 17.78° C | 86% | 996 hPa | - | 0 m/s | 0 W/m² | - |
| 1778007498 | 17.78° C | 86% | 996 hPa | - | 0 m/s | 0 W/m² | - |
| 1778006598 | 17.78° C | 86% | 996 hPa | - | 0 m/s | 0 W/m² | - |
| 1778005698 | 17.78° C | 85% | 996 hPa | - | 0 m/s | 0 W/m² | - |
| 1778004798 | 18.33° C | 85% | 995.7 hPa | - | 0 m/s | 0 W/m² | - |
| 1778003898 | 18.33° C | 84% | 995.9 hPa | - | 0 m/s | 1 W/m² | - |
| 1778002997 | 18.89° C | 83% | 996 hPa | - | 0 m/s | 3 W/m² | - |
| 1778000298 | 19.44° C | 79% | 996.5 hPa | - | 0 m/s | 40 W/m² | - |
| 1777999398 | 20° C | 77% | 996.5 hPa | - | 0 m/s | 64 W/m² | - |
| 1777998498 | 20° C | 76% | 996.7 hPa | - | 0 m/s | 82 W/m² | - |
| 1777997598 | 20° C | 75% | 996.5 hPa | - | 0 m/s | 108 W/m² | - |
| 1777996698 | 20° C | 76% | 996.7 hPa | - | 0.45 m/s, 354° | 128 W/m² | - |
| 1777995798 | 20.56° C | 73% | 996.7 hPa | - | 0 m/s | 117 W/m² | - |
* Rain since midnight (hover to see other rain measurements)
** Current wind speed in m/s (hover to see current wind gust speed)